START_TIME,STEP,MOV.,M34,t_acc.,L5,t_acc.,L18,t_acc.,L14,t_acc.
1979-07-26 00:00:24.070 ,0,0,0.,12.0,0.,12.0,0.,12.0,0.,12.0
1979-07-26 00:00:36.070 ,0,0,0.,12.0,0.,12.0,0.,12.0,0.,12.0
1979-07-26 00:01:36.070 ,0,0,0.,12.0,0.,12.0,0.,12.0,0.,12.0
1979-07-26 00:01:48.070 ,0,0,0.,12.0,0.,12.0,0.,12.0,0.,12.0
1979-07-26 00:02:00.070 ,0,0,0.,12.0,0.,12.0,0.,12.0,0.,12.0
1979-07-26 00:02:12.070 ,0,0,0.,12.0,0.,12.0,0.,12.0,0.,12.0
1979-07-26 00:02:24.070 ,3,1,0.,12.0,0.,12.0,0.,12.0,0.,12.0
1979-07-26 00:02:36.070 ,3,1,0.,12.0,0.,12.0,0.,12.0,0.,12.0
1979-07-26 00:02:48.070 ,3,0,0.,12.0,0.,12.0,0.,12.0,0.,12.0
1979-07-26 00:03:00.070 ,3,0,0.,12.0,0.,12.0,0.,12.0,0.,12.0
1979-07-26 00:03:12.070 ,4,1,0.,12.0,0.,12.0,0.,12.0,0.,12.0
1979-07-26 00:03:24.070 ,4,1,0.,12.0,0.,12.0,0.,12.0,0.,12.0
1979-07-26 00:03:36.070 ,4,0,0.,12.0,0.,12.0,0.,12.0,0.,12.0
1979-07-26 00:03:48.070 ,4,0,0.,12.0,0.,12.0,0.,12.0,0.,12.0
1979-07-26 00:04:00.070 ,5,1,0.,12.0,0.,12.0,0.,12.0,0.,12.0
1979-07-26 00:04:12.070 ,5,1,0.,12.0,0.,12.0,0.,12.0,0.,12.0
1979-07-26 00:04:24.070 ,5,0,0.,12.0,0.,12.0,0.,12.0,0.,12.0
1979-07-26 00:04:36.070 ,5,0,0.,12.0,0.,12.0,0.,12.0,0.,12.0
1979-07-26 00:04:48.070 ,6,1,0.,12.0,0.,12.0,0.,12.0,0.,12.0
1979-07-26 00:05:00.070 ,6,1,0.,12.0,0.,12.0,0.,12.0,0.,12.0
1979-07-26 00:05:12.070 ,6,0,0.,12.0,0.,12.0,0.,12.0,0.,12.0
1979-07-26 00:05:24.070 ,6,0,1.,12.0,0.,12.0,0.,12.0,0.,12.0
1979-07-26 00:05:36.070 ,7,1,0.,12.0,0.,12.0,0.,12.0,0.,12.0
1979-07-26 00:05:48.070 ,7,1,0.,12.0,0.,12.0,0.,12.0,0.,12.0
1979-07-26 00:06:00.070 ,7,0,0.,12.0,0.,12.0,0.,12.0,0.,12.0
1979-07-26 00:06:12.070 ,7,0,0.,12.0,0.,12.0,0.,12.0,0.,12.0
1979-07-26 00:06:24.070 ,7,1,0.,12.0,0.,12.0,0.,12.0,0.,12.0
1979-07-26 00:06:36.070 ,7,1,0.,12.0,0.,12.0,0.,12.0,0.,12.0
1979-07-26 00:06:48.070 ,7,0,0.,12.0,0.,12.0,0.,12.0,0.,12.0
1979-07-26 00:07:00.070 ,7,0,0.,12.0,0.,12.0,0.,12.0,0.,12.0
1979-07-26 00:07:12.070 ,6,1,0.,12.0,0.,12.0,0.,12.0,0.,12.0
1979-07-26 00:07:24.070 ,6,1,0.,12.0,0.,12.0,0.,12.0,0.,12.0
1979-07-26 00:07:36.070 ,6,0,0.,12.0,0.,12.0,0.,12.0,0.,12.0
1979-07-26 00:07:48.070 ,6,0,0.,12.0,0.,12.0,0.,12.0,0.,12.0
1979-07-26 00:08:00.070 ,5,1,0.,12.0,0.,12.0,0.,12.0,0.,12.0
1979-07-26 00:08:12.070 ,5,1,0.,12.0,0.,12.0,0.,12.0,0.,12.0
1979-07-26 00:08:24.070 ,5,0,0.,12.0,0.,12.0,0.,12.0,0.,12.0
1979-07-26 00:08:36.070 ,5,0,0.,12.0,0.,12.0,0.,12.0,0.,12.0
1979-07-26 00:08:48.070 ,4,1,0.,12.0,0.,12.0,0.,12.0,0.,12.0
1979-07-26 00:09:00.070 ,4,1,0.,12.0,0.,12.0,0.,12.0,0.,12.0
1979-07-26 00:09:12.070 ,4,0,0.,12.0,0.,12.0,0.,12.0,0.,12.0
1979-07-26 00:09:24.070 ,4,0,0.,12.0,0.,12.0,0.,12.0,0.,12.0
1979-07-26 00:09:36.070 ,3,1,0.,12.0,0.,12.0,0.,12.0,0.,12.0
1979-07-26 00:09:48.070 ,3,1,0.,12.0,0.,12.0,0.,12.0,0.,12.0
1979-07-26 00:10:00.070 ,3,0,0.,12.0,0.,12.0,0.,12.0,0.,12.0
1979-07-26 00:10:12.070 ,3,0,0.,12.0,0.,12.0,0.,12.0,0.,12.0
1979-07-26 00:10:24.070 ,2,1,0.,12.0,0.,12.0,0.,12.0,0.,12.0
1979-07-26 00:10:36.070 ,2,1,0.,12.0,0.,12.0,0.,12.0,0.,12.0
1979-07-26 00:10:48.070 ,2,0,0.,12.0,0.,12.0,0.,12.0,0.,12.0
1979-07-26 00:11:00.070 ,2,0,0.,12.0,0.,12.0,0.,12.0,0.,12.0
1979-07-26 00:11:12.070 ,1,1,0.,12.0,0.,12.0,0.,12.0,0.,12.0
1979-07-26 00:11:24.070 ,1,1,0.,12.0,0.,12.0,0.,12.0,0.,12.0
1979-07-26 00:11:36.070 ,1,0,0.,12.0,0.,12.0,0.,12.0,0.,12.0
1979-07-26 00:11:48.070 ,1,0,0.,12.0,0.,12.0,0.,12.0,0.,12.0
1979-07-26 00:12:00.070 ,0,1,0.,12.0,0.,12.0,0.,12.0,0.,12.0
1979-07-26 00:12:12.070 ,0,1,0.,12.0,0.,12.0,0.,12.0,0.,12.0
1979-07-26 00:12:24.070 ,0,0,0.,12.0,0.,12.0,0.,12.0,0.,12.0
1979-07-26 00:12:36.070 ,0,0,0.,12.0,0.,12.0,0.,12.0,0.,12.0
1979-07-26 00:12:48.070 ,0,1,0.,12.0,0.,12.0,0.,12.0,0.,12.0
1979-07-26 00:13:00.070 ,0,1,0.,12.0,0.,12.0,0.,12.0,0.,12.0
1979-07-26 00:13:12.070 ,0,0,0.,12.0,0.,12.0,0.,12.0,0.,12.0
1979-07-26 00:13:24.070 ,0,0,0.,12.0,0.,12.0,0.,12.0,0.,12.0
1979-07-26 00:13:36.070 ,1,1,0.,12.0,0.,12.0,0.,12.0,0.,12.0
1979-07-26 00:13:48.070 ,1,1,0.,12.0,0.,12.0,0.,12.0,0.,12.0
1979-07-26 00:14:00.070 ,1,0,0.,12.0,0.,12.0,0.,12.0,0.,12.0
1979-07-26 00:14:12.070 ,1,0,0.,12.0,0.,12.0,0.,12.0,0.,12.0
1979-07-26 00:14:24.070 ,2,1,0.,12.0,0.,12.0,0.,12.0,0.,12.0
1979-07-26 00:14:36.070 ,2,1,0.,12.0,0.,12.0,0.,12.0,0.,12.0
1979-07-26 00:14:48.070 ,2,0,0.,12.0,0.,12.0,0.,12.0,0.,12.0
1979-07-26 00:15:00.070 ,2,0,0.,12.0,0.,12.0,0.,12.0,0.,12.0
1979-07-26 00:15:12.070 ,3,1,0.,12.0,0.,12.0,0.,12.0,0.,12.0
1979-07-26 00:15:24.070 ,3,1,0.,12.0,0.,12.0,0.,12.0,0.,12.0
1979-07-26 00:15:36.070 ,3,0,0.,12.0,0.,12.0,0.,12.0,0.,12.0
1979-07-26 00:15:48.070 ,3,0,0.,12.0,0.,12.0,0.,12.0,0.,12.0
1979-07-26 00:16:00.070 ,4,1,0.,12.0,0.,12.0,0.,12.0,0.,12.0
1979-07-26 00:16:12.070 ,4,1,0.,12.0,0.,12.0,0.,12.0,0.,12.0
1979-07-26 00:16:24.070 ,4,0,0.,12.0,0.,12.0,0.,12.0,0.,12.0
1979-07-26 00:16:36.070 ,4,0,0.,12.0,0.,12.0,0.,12.0,0.,12.0
1979-07-26 00:16:48.070 ,5,1,0.,12.0,0.,12.0,0.,12.0,0.,12.0
1979-07-26 00:17:00.070 ,5,1,0.,12.0,0.,12.0,0.,12.0,0.,12.0
1979-07-26 00:17:12.070 ,5,0,0.,12.0,0.,12.0,0.,12.0,0.,12.0
1979-07-26 00:17:24.070 ,5,0,0.,12.0,0.,12.0,0.,12.0,0.,12.0
1979-07-26 00:17:36.070 ,6,1,0.,12.0,0.,12.0,0.,12.0,0.,12.0
1979-07-26 00:17:48.070 ,6,1,0.,12.0,0.,12.0,0.,12.0,0.,12.0
1979-07-26 00:18:00.070 ,6,0,0.,12.0,0.,12.0,0.,12.0,0.,12.0
1979-07-26 00:18:12.070 ,6,0,0.,12.0,0.,12.0,0.,12.0,0.,12.0
1979-07-26 00:18:24.070 ,7,0,0.,12.0,0.,12.0,0.,12.0,0.,12.0
1979-07-26 00:18:36.070 ,7,0,0.,12.0,0.,12.0,0.,12.0,0.,12.0
1979-07-26 00:18:48.070 ,7,0,0.,12.0,0.,12.0,0.,12.0,0.,12.0
1979-07-26 00:19:00.070 ,7,0,0.,12.0,0.,12.0,0.,12.0,0.,12.0
1979-07-26 00:19:12.070 ,4,1,0.,12.0,0.,12.0,0.,12.0,0.,12.0
1979-07-26 00:19:24.070 ,4,1,0.,12.0,0.,12.0,0.,12.0,0.,12.0
1979-07-26 00:19:36.070 ,0,1,0.,12.0,0.,12.0,0.,12.0,0.,12.0
1979-07-26 00:19:48.070 ,0,1,0.,12.0,0.,12.0,0.,12.0,0.,12.0
1979-07-26 00:20:00.070 ,3,1,0.,12.0,0.,12.0,0.,12.0,0.,12.0
1979-07-26 00:20:12.070 ,3,1,0.,12.0,0.,12.0,0.,12.0,0.,12.0
1979-07-26 00:20:24.070 ,7,1,0.,12.0,0.,12.0,0.,12.0,0.,12.0
1979-07-26 00:20:36.070 ,7,1,0.,12.0,0.,12.0,0.,12.0,0.,12.0
1979-07-26 00:20:48.070 ,4,1,0.,12.0,0.,12.0,0.,12.0,0.,12.0
1979-07-26 00:21:00.070 ,4,1,0.,12.0,0.,12.0,0.,12.0,0.,12.0
1979-07-26 00:21:12.070 ,0,1,0.,12.0,0.,12.0,0.,12.0,0.,12.0
1979-07-26 00:21:24.070 ,0,1,0.,12.0,0.,12.0,0.,12.0,0.,12.0
1979-07-26 00:21:36.070 ,3,1,0.,12.0,0.,12.0,0.,12.0,0.,12.0
1979-07-26 00:21:48.070 ,3,1,0.,12.0,0.,12.0,0.,12.0,0.,12.0
1979-07-26 00:22:00.070 ,7,1,0.,12.0,0.,12.0,0.,12.0,0.,12.0
1979-07-26 00:22:12.070 ,7,1,0.,12.0,0.,12.0,0.,12.0,0.,12.0
1979-07-26 00:22:24.070 ,4,1,0.,12.0,0.,12.0,0.,12.0,0.,12.0
1979-07-26 00:22:36.070 ,4,1,0.,12.0,0.,12.0,0.,12.0,0.,12.0
1979-07-26 00:22:48.070 ,0,1,0.,12.0,0.,12.0,0.,12.0,0.,12.0
1979-07-26 00:23:00.070 ,0,1,0.,12.0,0.,12.0,0.,12.0,0.,12.0
1979-07-26 00:23:12.070 ,3,1,0.,12.0,0.,12.0,0.,12.0,0.,12.0
1979-07-26 00:23:24.070 ,3,1,0.,12.0,0.,12.0,0.,12.0,0.,12.0
1979-07-26 00:23:36.070 ,7,1,0.,12.0,0.,12.0,0.,12.0,0.,12.0
1979-07-26 00:23:48.070 ,7,1,0.,12.0,0.,12.0,0.,12.0,0.,12.0
1979-07-26 00:24:00.070 ,4,1,0.,12.0,0.,12.0,0.,12.0,0.,12.0
1979-07-26 00:24:12.070 ,4,1,0.,12.0,0.,12.0,0.,12.0,0.,12.0
1979-07-26 00:24:24.070 ,0,1,0.,12.0,0.,12.0,0.,12.0,0.,12.0
1979-07-26 00:24:36.070 ,0,1,0.,12.0,0.,12.0,0.,12.0,0.,12.0
1979-07-26 00:24:48.070 ,3,1,0.,12.0,0.,12.0,0.,12.0,0.,12.0
1979-07-26 00:25:00.070 ,3,1,0.,12.0,0.,12.0,0.,12.0,0.,12.0
1979-07-26 00:25:12.070 ,7,1,0.,12.0,0.,12.0,0.,12.0,0.,12.0
1979-07-26 00:25:24.070 ,7,1,0.,12.0,0.,12.0,0.,12.0,0.,12.0
1979-07-26 00:25:36.070 ,4,1,0.,12.0,0.,12.0,0.,12.0,0.,12.0
1979-07-26 00:25:48.070 ,4,1,0.,12.0,0.,12.0,0.,12.0,0.,12.0
1979-07-26 00:26:00.070 ,0,1,0.,12.0,0.,12.0,0.,12.0,0.,12.0
1979-07-26 00:26:12.070 ,0,1,0.,12.0,0.,12.0,0.,12.0,0.,12.0
1979-07-26 00:26:24.070 ,3,1,0.,12.0,0.,12.0,0.,12.0,0.,12.0
1979-07-26 00:26:36.070 ,3,1,1.,12.0,0.,12.0,0.,12.0,0.,12.0
1979-07-26 00:26:48.070 ,7,1,0.,12.0,0.,12.0,0.,12.0,0.,12.0
1979-07-26 00:27:00.070 ,7,1,0.,12.0,0.,12.0,0.,12.0,0.,12.0
1979-07-26 00:27:12.070 ,4,1,0.,12.0,0.,12.0,0.,12.0,0.,12.0
1979-07-26 00:27:24.070 ,4,1,0.,12.0,0.,12.0,0.,12.0,0.,12.0
1979-07-26 00:27:36.070 ,0,1,0.,12.0,0.,12.0,0.,12.0,0.,12.0
1979-07-26 00:27:48.070 ,0,1,0.,12.0,0.,12.0,0.,12.0,0.,12.0
1979-07-26 00:28:00.070 ,3,1,0.,12.0,0.,12.0,0.,12.0,0.,12.0
1979-07-26 00:28:12.070 ,3,1,0.,12.0,0.,12.0,0.,12.0,0.,12.0
1979-07-26 00:28:24.070 ,7,1,0.,12.0,0.,12.0,0.,12.0,0.,12.0
1979-07-26 00:28:36.070 ,7,1,0.,12.0,0.,12.0,0.,12.0,0.,12.0
1979-07-26 00:28:48.070 ,4,1,0.,12.0,0.,12.0,0.,12.0,0.,12.0
1979-07-26 00:29:00.070 ,4,1,0.,12.0,0.,12.0,0.,12.0,0.,12.0
1979-07-26 00:29:12.070 ,0,1,0.,12.0,0.,12.0,0.,12.0,0.,12.0
1979-07-26 00:29:24.070 ,0,1,0.,12.0,0.,12.0,0.,12.0,0.,12.0
1979-07-26 00:29:36.070 ,0,0,0.,12.0,0.,12.0,0.,12.0,0.,12.0
1979-07-26 00:29:48.070 ,0,0,0.,12.0,0.,12.0,0.,12.0,0.,12.0
1979-07-26 00:30:00.070 ,0,0,0.,12.0,0.,12.0,0.,12.0,0.,12.0
1979-07-26 00:30:12.070 ,0,0,0.,12.0,0.,12.0,0.,12.0,0.,12.0
1979-07-26 00:30:24.070 ,5,1,0.,12.0,0.,12.0,0.,12.0,0.,12.0
1979-07-26 00:30:36.070 ,5,1,0.,12.0,0.,12.0,0.,12.0,0.,12.0
1979-07-26 00:30:48.070 ,5,0,0.,12.0,0.,12.0,0.,12.0,0.,12.0
1979-07-26 00:31:00.070 ,5,0,0.,12.0,0.,12.0,0.,12.0,0.,12.0
1979-07-26 00:31:12.070 ,4,1,0.,12.0,0.,12.0,0.,12.0,0.,12.0
1979-07-26 00:31:24.070 ,4,1,0.,12.0,0.,12.0,0.,12.0,0.,12.0
1979-07-26 00:31:36.070 ,4,0,0.,12.0,0.,12.0,0.,12.0,0.,12.0
1979-07-26 00:31:48.070 ,4,0,0.,12.0,0.,12.0,0.,12.0,0.,12.0
1979-07-26 00:32:00.070 ,3,1,0.,12.0,0.,12.0,0.,12.0,0.,12.0
1979-07-26 00:32:12.070 ,3,1,0.,12.0,0.,12.0,0.,12.0,0.,12.0
1979-07-26 00:32:24.070 ,3,0,0.,12.0,0.,12.0,0.,12.0,0.,12.0
1979-07-26 00:32:36.070 ,3,0,0.,12.0,0.,12.0,0.,12.0,0.,12.0
1979-07-26 00:32:48.070 ,2,1,0.,12.0,0.,12.0,0.,12.0,0.,12.0
1979-07-26 00:33:00.070 ,2,1,0.,12.0,0.,12.0,0.,12.0,0.,12.0
1979-07-26 00:33:12.070 ,2,0,0.,12.0,0.,12.0,0.,12.0,0.,12.0
1979-07-26 00:33:24.070 ,2,0,0.,12.0,0.,12.0,0.,12.0,0.,12.0
1979-07-26 00:33:36.070 ,1,1,0.,12.0,0.,12.0,0.,12.0,0.,12.0
1979-07-26 00:33:48.070 ,1,1,0.,12.0,0.,12.0,0.,12.0,0.,12.0
1979-07-26 00:34:00.070 ,1,0,0.,12.0,0.,12.0,0.,12.0,0.,12.0
1979-07-26 00:34:12.070 ,1,0,0.,12.0,0.,12.0,0.,12.0,0.,12.0
1979-07-26 00:34:24.070 ,0,1,0.,12.0,0.,12.0,0.,12.0,0.,12.0
1979-07-26 00:34:36.070 ,0,1,0.,12.0,0.,12.0,0.,12.0,0.,12.0
1979-07-26 00:34:48.070 ,0,0,0.,12.0,0.,12.0,0.,12.0,0.,12.0
1979-07-26 00:35:00.070 ,0,0,0.,12.0,0.,12.0,0.,12.0,0.,12.0
1979-07-26 00:35:12.070 ,0,1,0.,12.0,0.,12.0,0.,12.0,0.,12.0
1979-07-26 00:35:24.070 ,0,1,0.,12.0,0.,12.0,0.,12.0,0.,12.0
1979-07-26 00:35:36.070 ,0,0,0.,12.0,0.,12.0,0.,12.0,0.,12.0
1979-07-26 00:35:48.070 ,0,0,0.,12.0,0.,12.0,0.,12.0,0.,12.0
1979-07-26 00:36:00.070 ,1,1,0.,12.0,0.,12.0,0.,12.0,0.,12.0
1979-07-26 00:36:12.070 ,1,1,0.,12.0,0.,12.0,0.,12.0,0.,12.0
1979-07-26 00:36:24.070 ,1,0,0.,12.0,0.,12.0,0.,12.0,0.,12.0
1979-07-26 00:36:36.070 ,1,0,0.,12.0,0.,12.0,0.,12.0,0.,12.0
1979-07-26 00:36:48.070 ,2,1,0.,12.0,0.,12.0,0.,12.0,0.,12.0
1979-07-26 00:37:00.070 ,2,1,0.,12.0,0.,12.0,0.,12.0,0.,12.0
1979-07-26 00:37:12.070 ,2,0,0.,12.0,0.,12.0,0.,12.0,0.,12.0
1979-07-26 00:37:24.070 ,2,0,0.,12.0,0.,12.0,0.,12.0,0.,12.0
1979-07-26 00:37:36.070 ,3,1,0.,12.0,0.,12.0,0.,12.0,0.,12.0
1979-07-26 00:37:48.070 ,3,1,0.,12.0,0.,12.0,0.,12.0,0.,12.0
1979-07-26 00:38:00.070 ,3,0,0.,12.0,0.,12.0,0.,12.0,0.,12.0
1979-07-26 00:38:12.070 ,3,0,0.,12.0,0.,12.0,0.,12.0,0.,12.0
1979-07-26 00:38:24.070 ,4,1,0.,12.0,0.,12.0,0.,12.0,0.,12.0
1979-07-26 00:38:36.070 ,4,1,0.,12.0,0.,12.0,0.,12.0,0.,12.0
1979-07-26 00:38:48.070 ,4,0,0.,12.0,0.,12.0,0.,12.0,0.,12.0
1979-07-26 00:39:00.070 ,4,0,0.,12.0,0.,12.0,0.,12.0,0.,12.0
1979-07-26 00:39:12.070 ,5,1,0.,12.0,0.,12.0,0.,12.0,0.,12.0
1979-07-26 00:39:24.070 ,5,1,0.,12.0,0.,12.0,0.,12.0,0.,12.0
1979-07-26 00:39:36.070 ,5,0,0.,12.0,0.,12.0,0.,12.0,0.,12.0
1979-07-26 00:39:48.070 ,5,0,0.,12.0,0.,12.0,0.,12.0,0.,12.0
1979-07-26 00:40:00.070 ,6,1,0.,12.0,0.,12.0,0.,12.0,0.,12.0
1979-07-26 00:40:12.070 ,6,1,0.,12.0,0.,12.0,0.,12.0,0.,12.0
1979-07-26 00:40:24.070 ,6,0,0.,12.0,0.,12.0,0.,12.0,0.,12.0
1979-07-26 00:40:36.070 ,6,0,0.,12.0,0.,12.0,0.,12.0,0.,12.0
1979-07-26 00:40:48.070 ,7,1,0.,12.0,0.,12.0,0.,12.0,0.,12.0
1979-07-26 00:41:00.070 ,7,1,0.,12.0,0.,12.0,0.,12.0,0.,12.0
1979-07-26 00:41:12.070 ,7,0,0.,12.0,0.,12.0,0.,12.0,0.,12.0
1979-07-26 00:41:24.070 ,7,0,0.,12.0,0.,12.0,0.,12.0,0.,12.0
1979-07-26 00:41:36.070 ,7,1,0.,12.0,0.,12.0,0.,12.0,0.,12.0
1979-07-26 00:41:48.070 ,7,1,0.,12.0,0.,12.0,0.,12.0,0.,12.0
1979-07-26 00:42:00.070 ,7,0,0.,12.0,0.,12.0,0.,12.0,0.,12.0
1979-07-26 00:42:12.070 ,7,0,0.,12.0,0.,12.0,0.,12.0,0.,12.0
1979-07-26 00:42:24.070 ,6,1,0.,12.0,0.,12.0,0.,12.0,0.,12.0
1979-07-26 00:42:36.070 ,6,1,0.,12.0,0.,12.0,0.,12.0,0.,12.0
1979-07-26 00:42:48.070 ,6,0,0.,12.0,0.,12.0,0.,12.0,0.,12.0
1979-07-26 00:43:00.070 ,6,0,0.,12.0,0.,12.0,0.,12.0,0.,12.0
1979-07-26 00:43:12.070 ,5,1,0.,12.0,0.,12.0,0.,12.0,0.,12.0
1979-07-26 00:43:24.070 ,5,1,0.,12.0,0.,12.0,0.,12.0,0.,12.0
1979-07-26 00:43:36.070 ,5,0,0.,12.0,0.,12.0,0.,12.0,0.,12.0
1979-07-26 00:43:48.070 ,5,0,0.,12.0,0.,12.0,0.,12.0,0.,12.0
1979-07-26 00:44:00.070 ,4,1,0.,12.0,0.,12.0,0.,12.0,0.,12.0
1979-07-26 00:44:12.070 ,4,1,0.,12.0,0.,12.0,0.,12.0,0.,12.0
1979-07-26 00:44:24.070 ,4,0,0.,12.0,0.,12.0,0.,12.0,0.,12.0
1979-07-26 00:44:36.070 ,4,0,0.,12.0,0.,12.0,0.,12.0,0.,12.0
1979-07-26 00:44:48.070 ,3,1,0.,12.0,0.,12.0,0.,12.0,0.,12.0
1979-07-26 00:45:00.070 ,3,1,0.,12.0,0.,12.0,0.,12.0,0.,12.0
1979-07-26 00:45:12.070 ,3,0,0.,12.0,0.,12.0,0.,12.0,0.,12.0
1979-07-26 00:45:24.070 ,3,0,0.,12.0,0.,12.0,0.,12.0,0.,12.0
1979-07-26 00:45:36.070 ,2,1,0.,12.0,0.,12.0,0.,12.0,0.,12.0
1979-07-26 00:45:48.070 ,2,1,0.,12.0,0.,12.0,0.,12.0,0.,12.0
1979-07-26 00:46:00.070 ,2,0,0.,12.0,0.,12.0,0.,12.0,0.,12.0
1979-07-26 00:46:12.070 ,2,0,0.,12.0,0.,12.0,0.,12.0,0.,12.0
1979-07-26 00:46:24.070 ,1,1,0.,12.0,0.,12.0,0.,12.0,0.,12.0
1979-07-26 00:46:36.070 ,1,1,0.,12.0,0.,12.0,0.,12.0,0.,12.0
1979-07-26 00:46:48.070 ,1,0,0.,12.0,0.,12.0,0.,12.0,0.,12.0
1979-07-26 00:47:00.070 ,1,0,0.,12.0,0.,12.0,0.,12.0,0.,12.0
1979-07-26 00:47:12.070 ,0,1,0.,12.0,0.,12.0,0.,12.0,0.,12.0
1979-07-26 00:47:24.070 ,0,1,0.,12.0,0.,12.0,0.,12.0,0.,12.0
1979-07-26 00:47:36.070 ,0,0,0.,12.0,0.,12.0,0.,12.0,0.,12.0
1979-07-26 00:47:48.070 ,0,0,0.,12.0,0.,12.0,0.,12.0,0.,12.0
1979-07-26 00:48:00.070 ,0,1,0.,12.0,0.,12.0,0.,12.0,0.,12.0
1979-07-26 00:48:12.070 ,0,1,0.,12.0,0.,12.0,0.,12.0,0.,12.0
1979-07-26 00:48:24.070 ,0,0,0.,12.0,0.,12.0,0.,12.0,0.,12.0
1979-07-26 00:48:36.070 ,0,0,0.,12.0,0.,12.0,0.,12.0,0.,12.0
1979-07-26 00:48:48.070 ,1,1,0.,12.0,0.,12.0,0.,12.0,0.,12.0
1979-07-26 00:49:00.070 ,1,1,0.,12.0,0.,12.0,0.,12.0,0.,12.0
1979-07-26 00:49:12.070 ,1,0,0.,12.0,0.,12.0,0.,12.0,0.,12.0
1979-07-26 00:49:24.070 ,1,0,0.,12.0,0.,12.0,0.,12.0,0.,12.0
1979-07-26 00:49:36.070 ,2,1,0.,12.0,0.,12.0,0.,12.0,0.,12.0
1979-07-26 00:49:48.070 ,2,1,0.,12.0,0.,12.0,0.,12.0,0.,12.0
1979-07-26 00:50:00.070 ,2,0,0.,12.0,0.,12.0,0.,12.0,0.,12.0
1979-07-26 00:50:12.070 ,2,0,0.,12.0,0.,12.0,0.,12.0,0.,12.0
1979-07-26 00:50:24.070 ,3,1,0.,12.0,0.,12.0,0.,12.0,0.,12.0
1979-07-26 00:50:36.070 ,3,1,0.,12.0,0.,12.0,0.,12.0,0.,12.0
1979-07-26 00:50:48.070 ,3,0,0.,12.0,0.,12.0,0.,12.0,0.,12.0
1979-07-26 00:51:00.070 ,3,0,0.,12.0,0.,12.0,0.,12.0,0.,12.0
1979-07-26 00:51:12.070 ,4,1,0.,12.0,0.,12.0,0.,12.0,0.,12.0
1979-07-26 00:51:24.070 ,4,1,0.,12.0,0.,12.0,0.,12.0,0.,12.0
1979-07-26 00:51:36.070 ,4,0,0.,12.0,0.,12.0,0.,12.0,0.,12.0
1979-07-26 00:51:48.070 ,4,0,0.,12.0,0.,12.0,0.,12.0,0.,12.0
1979-07-26 00:52:00.070 ,5,1,0.,12.0,0.,12.0,0.,12.0,0.,12.0
1979-07-26 00:52:12.070 ,5,1,0.,12.0,0.,12.0,0.,12.0,0.,12.0
1979-07-26 00:52:24.070 ,5,0,0.,12.0,0.,12.0,0.,12.0,0.,12.0
1979-07-26 00:52:36.070 ,5,0,0.,12.0,0.,12.0,0.,12.0,0.,12.0
1979-07-26 00:52:48.070 ,6,1,0.,12.0,0.,12.0,0.,12.0,0.,12.0
1979-07-26 00:53:00.070 ,6,1,0.,12.0,0.,12.0,0.,12.0,0.,12.0
1979-07-26 00:53:12.070 ,6,0,0.,12.0,0.,12.0,0.,12.0,0.,12.0
1979-07-26 00:53:24.070 ,6,0,0.,12.0,0.,12.0,0.,12.0,0.,12.0
1979-07-26 00:53:36.070 ,7,1,0.,12.0,0.,12.0,0.,12.0,0.,12.0
1979-07-26 00:53:48.070 ,7,1,0.,12.0,0.,12.0,0.,12.0,0.,12.0
1979-07-26 00:54:00.070 ,7,0,0.,12.0,0.,12.0,0.,12.0,0.,12.0
1979-07-26 00:54:12.070 ,7,0,0.,12.0,0.,12.0,0.,12.0,0.,12.0
1979-07-26 00:54:24.070 ,7,1,0.,12.0,0.,12.0,0.,12.0,0.,12.0
1979-07-26 00:54:36.070 ,7,1,0.,12.0,0.,12.0,0.,12.0,0.,12.0
1979-07-26 00:54:48.070 ,7,0,0.,12.0,0.,12.0,0.,12.0,0.,12.0
1979-07-26 00:55:00.070 ,7,0,0.,12.0,0.,12.0,0.,12.0,0.,12.0
1979-07-26 00:55:12.070 ,6,1,0.,12.0,0.,12.0,0.,12.0,0.,12.0
1979-07-26 00:55:24.070 ,6,1,0.,12.0,0.,12.0,0.,12.0,0.,12.0
1979-07-26 00:55:36.070 ,6,0,0.,12.0,0.,12.0,0.,12.0,0.,12.0
1979-07-26 00:55:48.070 ,6,0,0.,12.0,0.,12.0,0.,12.0,0.,12.0
1979-07-26 00:56:00.070 ,5,1,0.,12.0,0.,12.0,0.,12.0,0.,12.0
1979-07-26 00:56:12.070 ,5,1,0.,12.0,0.,12.0,0.,12.0,0.,12.0
1979-07-26 00:56:24.070 ,5,0,0.,12.0,0.,12.0,0.,12.0,0.,12.0
1979-07-26 00:56:36.070 ,5,0,0.,12.0,0.,12.0,0.,12.0,0.,12.0
1979-07-26 00:56:48.070 ,4,1,0.,12.0,0.,12.0,0.,12.0,0.,12.0
1979-07-26 00:57:00.070 ,4,1,0.,12.0,0.,12.0,0.,12.0,0.,12.0
1979-07-26 00:57:12.070 ,4,0,0.,12.0,0.,12.0,0.,12.0,0.,12.0
1979-07-26 00:57:24.070 ,4,0,0.,12.0,0.,12.0,0.,12.0,0.,12.0
1979-07-26 00:57:36.070 ,3,1,0.,12.0,0.,12.0,0.,12.0,0.,12.0
1979-07-26 00:57:48.070 ,3,1,0.,12.0,0.,12.0,0.,12.0,0.,12.0
1979-07-26 00:58:00.070 ,3,0,0.,12.0,0.,12.0,0.,12.0,0.,12.0
1979-07-26 00:58:12.070 ,3,0,0.,12.0,0.,12.0,0.,12.0,0.,12.0
1979-07-26 00:58:24.070 ,2,1,0.,12.0,0.,12.0,0.,12.0,0.,12.0
1979-07-26 00:58:36.070 ,2,1,1.,12.0,0.,12.0,0.,12.0,0.,12.0
1979-07-26 00:58:48.070 ,2,0,0.,12.0,0.,12.0,0.,12.0,0.,12.0
1979-07-26 00:59:00.070 ,2,0,0.,12.0,0.,12.0,0.,12.0,0.,12.0
1979-07-26 00:59:12.070 ,1,1,0.,12.0,0.,12.0,0.,12.0,0.,12.0
1979-07-26 00:59:24.070 ,1,1,0.,12.0,0.,12.0,0.,12.0,0.,12.0
1979-07-26 00:59:36.070 ,1,0,0.,12.0,0.,12.0,0.,12.0,0.,12.0
1979-07-26 00:59:48.070 ,1,0,0.,12.0,0.,12.0,0.,12.0,0.,12.0
1979-07-26 01:00:00.070 ,0,1,0.,12.0,0.,12.0,0.,12.0,0.,12.0
1979-07-26 01:00:12.070 ,0,1,0.,12.0,0.,12.0,0.,12.0,0.,12.0
1979-07-26 01:00:24.070 ,0,0,0.,12.0,0.,12.0,0.,12.0,0.,12.0
1979-07-26 01:00:36.070 ,0,0,0.,12.0,0.,12.0,0.,12.0,0.,12.0
1979-07-26 01:00:48.070 ,0,1,0.,12.0,0.,12.0,0.,12.0,0.,12.0
1979-07-26 01:01:00.070 ,0,1,0.,12.0,0.,12.0,0.,12.0,0.,12.0
1979-07-26 01:01:12.070 ,0,0,0.,12.0,0.,12.0,0.,12.0,0.,12.0
1979-07-26 01:01:24.070 ,0,0,0.,12.0,0.,12.0,0.,12.0,0.,12.0
1979-07-26 01:01:36.070 ,1,1,1.,12.0,0.,12.0,0.,12.0,0.,12.0
1979-07-26 01:01:48.070 ,1,1,0.,12.0,0.,12.0,0.,12.0,0.,12.0
1979-07-26 01:02:00.070 ,1,0,0.,12.0,0.,12.0,0.,12.0,0.,12.0
1979-07-26 01:02:12.070 ,1,0,0.,12.0,0.,12.0,0.,12.0,0.,12.0
1979-07-26 01:02:24.070 ,2,1,0.,12.0,0.,12.0,0.,12.0,0.,12.0
1979-07-26 01:02:36.070 ,2,1,0.,12.0,0.,12.0,0.,12.0,0.,12.0
1979-07-26 01:02:48.070 ,2,0,0.,12.0,0.,12.0,0.,12.0,0.,12.0
1979-07-26 01:03:00.070 ,2,0,0.,12.0,0.,12.0,0.,12.0,0.,12.0
1979-07-26 01:03:12.070 ,3,1,0.,12.0,0.,12.0,0.,12.0,0.,12.0
1979-07-26 01:03:24.070 ,3,1,0.,12.0,0.,12.0,0.,12.0,0.,12.0
1979-07-26 01:03:36.070 ,3,0,0.,12.0,0.,12.0,0.,12.0,0.,12.0
1979-07-26 01:03:48.070 ,3,0,0.,12.0,0.,12.0,0.,12.0,0.,12.0
1979-07-26 01:04:00.070 ,4,1,0.,12.0,0.,12.0,0.,12.0,0.,12.0
1979-07-26 01:04:12.070 ,4,1,0.,12.0,0.,12.0,0.,12.0,0.,12.0
1979-07-26 01:04:24.070 ,4,0,0.,12.0,0.,12.0,0.,12.0,0.,12.0
1979-07-26 01:04:36.070 ,4,0,0.,12.0,0.,12.0,0.,12.0,0.,12.0
1979-07-26 01:04:48.070 ,5,1,0.,12.0,0.,12.0,0.,12.0,0.,12.0
1979-07-26 01:05:00.070 ,5,1,0.,12.0,0.,12.0,0.,12.0,0.,12.0
1979-07-26 01:05:12.070 ,5,0,0.,12.0,0.,12.0,0.,12.0,0.,12.0
1979-07-26 01:05:24.070 ,5,0,0.,12.0,0.,12.0,0.,12.0,0.,12.0
1979-07-26 01:05:36.070 ,6,1,0.,12.0,0.,12.0,0.,12.0,0.,12.0
1979-07-26 01:05:48.070 ,6,1,0.,12.0,0.,12.0,0.,12.0,0.,12.0
1979-07-26 01:06:00.070 ,6,0,0.,12.0,0.,12.0,0.,12.0,0.,12.0
1979-07-26 01:06:12.070 ,6,0,0.,12.0,0.,12.0,0.,12.0,0.,12.0
1979-07-26 01:08:00.070 ,0,0,0.,12.0,0.,12.0,0.,12.0,0.,12.0
1979-07-26 01:08:12.070 ,0,0,0.,12.0,0.,12.0,0.,12.0,0.,12.0
1979-07-26 01:08:24.070 ,7,1,0.,12.0,0.,12.0,0.,12.0,0.,12.0
1979-07-26 01:08:36.070 ,7,1,0.,12.0,0.,12.0,0.,12.0,0.,12.0
1979-07-26 01:08:48.070 ,4,1,0.,12.0,0.,12.0,0.,12.0,0.,12.0
1979-07-26 01:09:00.070 ,4,1,0.,12.0,0.,12.0,0.,12.0,0.,12.0
1979-07-26 01:09:12.070 ,0,1,0.,12.0,0.,12.0,0.,12.0,0.,12.0
1979-07-26 01:09:24.070 ,0,1,0.,12.0,0.,12.0,0.,12.0,0.,12.0
1979-07-26 01:09:12.070 ,0,1,0.,12.0,0.,12.0,0.,12.0,0.,12.0
1979-07-26 01:09:24.070 ,0,1,0.,12.0,0.,12.0,0.,12.0,0.,12.0
1979-07-26 01:09:36.070 ,3,1,0.,12.0,0.,12.0,0.,12.0,0.,12.0
1979-07-26 01:09:48.070 ,3,1,0.,12.0,0.,12.0,0.,12.0,0.,12.0
1979-07-26 01:10:00.070 ,7,1,0.,12.0,0.,12.0,0.,12.0,0.,12.0
1979-07-26 01:10:12.070 ,7,1,0.,12.0,0.,12.0,0.,12.0,0.,12.0
1979-07-26 01:10:24.070 ,4,1,0.,12.0,0.,12.0,0.,12.0,0.,12.0
1979-07-26 01:10:36.070 ,4,1,0.,12.0,0.,12.0,0.,12.0,0.,12.0
1979-07-26 01:10:48.070 ,0,1,0.,12.0,0.,12.0,0.,12.0,0.,12.0
1979-07-26 01:11:00.070 ,0,1,0.,12.0,0.,12.0,0.,12.0,0.,12.0
1979-07-26 01:11:12.070 ,3,1,0.,12.0,0.,12.0,0.,12.0,0.,12.0
1979-07-26 01:11:24.070 ,3,1,0.,12.0,0.,12.0,0.,12.0,0.,12.0
1979-07-26 01:11:36.070 ,7,1,0.,12.0,0.,12.0,0.,12.0,0.,12.0
1979-07-26 01:11:48.070 ,7,1,0.,12.0,0.,12.0,0.,12.0,0.,12.0
1979-07-26 01:12:00.070 ,4,1,0.,12.0,0.,12.0,0.,12.0,0.,12.0
1979-07-26 01:12:12.070 ,4,1,0.,12.0,0.,12.0,0.,12.0,0.,12.0
1979-07-26 01:12:24.070 ,0,1,0.,12.0,0.,12.0,0.,12.0,0.,12.0
1979-07-26 01:12:36.070 ,0,1,0.,12.0,0.,12.0,0.,12.0,0.,12.0
1979-07-26 01:12:48.070 ,3,1,0.,12.0,0.,12.0,0.,12.0,0.,12.0
1979-07-26 01:13:00.070 ,3,1,0.,12.0,0.,12.0,0.,12.0,0.,12.0
1979-07-26 01:13:12.070 ,7,1,0.,12.0,0.,12.0,0.,12.0,0.,12.0
1979-07-26 01:13:24.070 ,7,1,0.,12.0,0.,12.0,0.,12.0,0.,12.0
1979-07-26 01:13:36.070 ,4,1,0.,12.0,0.,12.0,0.,12.0,0.,12.0
1979-07-26 01:13:48.070 ,4,1,0.,12.0,0.,12.0,0.,12.0,0.,12.0
1979-07-26 01:14:00.070 ,0,1,0.,12.0,0.,12.0,0.,12.0,0.,12.0
1979-07-26 01:14:12.070 ,0,1,0.,12.0,0.,12.0,0.,12.0,0.,12.0
1979-07-26 01:14:24.070 ,3,1,0.,12.0,0.,12.0,0.,12.0,0.,12.0
1979-07-26 01:14:36.070 ,3,1,0.,12.0,0.,12.0,0.,12.0,0.,12.0
1979-07-26 01:14:48.070 ,7,1,0.,12.0,0.,12.0,0.,12.0,0.,12.0
1979-07-26 01:15:00.070 ,7,1,0.,12.0,0.,12.0,0.,12.0,0.,12.0
1979-07-26 01:15:12.070 ,4,1,0.,12.0,0.,12.0,0.,12.0,0.,12.0
1979-07-26 01:15:24.070 ,4,1,0.,12.0,0.,12.0,0.,12.0,0.,12.0
1979-07-26 01:15:36.070 ,0,1,0.,12.0,0.,12.0,0.,12.0,0.,12.0
1979-07-26 01:15:48.070 ,0,1,0.,12.0,0.,12.0,0.,12.0,0.,12.0
1979-07-26 01:16:00.070 ,3,1,0.,12.0,0.,12.0,0.,12.0,0.,12.0
1979-07-26 01:16:12.070 ,3,1,0.,12.0,0.,12.0,0.,12.0,0.,12.0
1979-07-26 01:16:24.070 ,7,1,0.,12.0,0.,12.0,0.,12.0,0.,12.0
1979-07-26 01:16:36.070 ,7,1,0.,12.0,0.,12.0,0.,12.0,0.,12.0
1979-07-26 01:16:48.070 ,4,1,0.,12.0,0.,12.0,0.,12.0,0.,12.0
1979-07-26 01:17:00.070 ,4,1,0.,12.0,0.,12.0,0.,12.0,0.,12.0
1979-07-26 01:17:12.070 ,0,1,0.,12.0,0.,12.0,0.,12.0,0.,12.0
1979-07-26 01:17:24.070 ,0,1,0.,12.0,0.,12.0,0.,12.0,0.,12.0
1979-07-26 01:17:36.070 ,0,0,0.,12.0,0.,12.0,0.,12.0,0.,12.0
1979-07-26 01:17:48.070 ,0,0,0.,12.0,0.,12.0,0.,12.0,0.,12.0
1979-07-26 01:18:00.070 ,0,0,0.,12.0,0.,12.0,0.,12.0,0.,12.0
1979-07-26 01:18:12.070 ,0,0,1.,12.0,0.,12.0,0.,12.0,0.,12.0
1979-07-26 01:18:24.070 ,5,1,0.,12.0,0.,12.0,0.,12.0,0.,12.0
1979-07-26 01:18:36.070 ,5,1,0.,12.0,0.,12.0,0.,12.0,0.,12.0
1979-07-26 01:18:48.070 ,5,0,0.,12.0,0.,12.0,0.,12.0,0.,12.0
1979-07-26 01:19:00.070 ,5,0,0.,12.0,0.,12.0,0.,12.0,0.,12.0
1979-07-26 01:19:12.070 ,4,1,0.,12.0,0.,12.0,0.,12.0,0.,12.0
1979-07-26 01:19:24.070 ,4,1,0.,12.0,0.,12.0,0.,12.0,0.,12.0